Location: *
(28.3744°N, 81.5492°W)
Time: 03:57:29
(UTC+00:00)

Cosmos 1975 - Pass Details

Date: 15 June 2025
Orbit: 488 x 504 km, 82.5° (Epoch: 11 July)

Event Time Altitude Azimuth Distance (km) Brightness Sun altitude
Rises 00:52:47 0° 1° (N) 2,583 6.7 -6.2°
Reaches altitude 10° 00:54:57 10° 8° (N) 1,700 5.6 -6.6°
Maximum altitude 00:58:33 46° 83° (E) 675 3.0 -7.3°
Drops below altitude 10° 01:02:08 10° 157° (SSE) 1,699 4.8 -8.0°
Enters shadow 01:03:14 - 161° (SSE) 2,143 5.4 -8.2°
